Iowa City, IA

5:40 AM CST on December 13, 2019 (GMT -0600)
Iowa City Municipal

Weather History for KIOW - October, 2019

Change the Weather History Date:

Wednesday, October 2, 2019

  Actual Average Record
Temperature  
Mean Temperature 69 °F 57 °F  
Max Temperature 77 °F 69 °F 93 °F (1953)
Min Temperature 61 °F 45 °F 21 °F (2003)
Degree Days  
Heating Degree Days 0 9  
Month to date heating degree days 0 17  
Since 1 July heating degree days 7 129  
Cooling Degree Days 4 1  
Month to date cooling degree days 18 2  
Year to date cooling degree days 1175 904  
Growing Degree Days 19 (Base 50)    
Moisture  
Dew Point 62 °F    
Average Humidity 86    
Maximum Humidity 93    
Minimum Humidity 78    
Precipitation  
Precipitation 0.79 in 0.09 in 1.95 in (2002)
Month to date precipitation 0.89 0.18  
Year to date precipitation 37.86 29.72  
Sea Level Pressure  
Sea Level Pressure 29.90 in    
Wind  
Wind Speed 8 mph (East)    
Max Wind Speed 24 mph    
Max Gust Speed 34 mph    
Visibility 7 miles    
Events Rain    
T = Trace of Precipitation, MM = Missing Value Source: NWS Daily Summary

Daily Weather History Graph

Daily Weather History Graph

Search for Another Location

Airport or City:

Astronomy

Oct. 02, 2019 Rise Set
Actual Time 7:03 AM CDT 6:46 PM CDT
Civil Twilight 6:36 AM CDT 7:14 PM CDT
Nautical Twilight 6:03 AM CDT 7:46 PM CDT
Astronomical Twilight 5:31 AM CDT 8:18 PM CDT
Moon 11:33 AM CDT (10/2) 9:37 PM CDT (10/2)
Length of Visible Light 12h 38m
Length of Day
11h 42m
Waxing Crescent, 20% of the Moon is Illuminated
Oct 2
Waxing Crescent
Oct 5
First Quarter
Oct 13
Full
Oct 21
Last Quarter
Oct 27
New

Hourly Weather History & Observations

Time (CDT) Temp. Dew Point Humidity Pressure Visibility Wind Dir Wind Speed Gust Speed Precip Events Conditions
12:52 AM 73.0 °F 70.0 °F 90% 29.81 in 10.0 mi Variable 3.5 mph - 0.01 in   Overcast
1:52 AM 73.0 °F 70.0 °F 90% 29.78 in 10.0 mi SSE 3.5 mph - 0.00 in   Overcast
2:52 AM 77.0 °F 71.1 °F 82% 29.75 in 8.0 mi SSW 11.5 mph - 0.01 in Rain Light Rain
3:11 AM 77.0 °F 70.0 °F 79% 29.76 in 10.0 mi SSW 15.0 mph 24.2 mph 0.00 in   Mostly Cloudy
3:19 AM 77.0 °F 70.0 °F 79% 29.77 in 10.0 mi SSW 15.0 mph 25.3 mph 0.00 in   Mostly Cloudy
3:32 AM 77.0 °F 70.0 °F 79% 29.78 in 10.0 mi SW 13.8 mph 24.2 mph 0.00 in   Mostly Cloudy
3:52 AM 75.9 °F 70.0 °F 82% 29.77 in 10.0 mi WSW 17.3 mph 24.2 mph 0.00 in   Overcast
4:07 AM 75.0 °F 70.0 °F 84% 29.80 in 10.0 mi West 24.2 mph 31.1 mph N/A   Overcast
4:27 AM 72.0 °F 68.0 °F 87% 29.82 in 10.0 mi West 16.1 mph 28.8 mph N/A   Overcast
4:52 AM 68.0 °F 64.9 °F 90% 29.83 in 8.0 mi West 13.8 mph 24.2 mph N/A   Overcast
5:23 AM 66.9 °F 64.0 °F 90% 29.86 in 10.0 mi WNW 11.5 mph - N/A   Overcast
5:52 AM 66.0 °F 63.0 °F 90% 29.86 in 10.0 mi WNW 11.5 mph - N/A   Overcast
6:52 AM 64.0 °F 61.0 °F 90% 29.89 in 10.0 mi WNW 9.2 mph - N/A   Overcast
7:52 AM 64.0 °F 61.0 °F 90% 29.92 in 4.0 mi WNW 10.4 mph - N/A   Overcast
8:07 AM 63.0 °F 61.0 °F 93% 29.93 in 2.5 mi West 8.1 mph - N/A   Overcast
8:23 AM 63.0 °F 61.0 °F 93% 29.94 in 1.8 mi WNW 8.1 mph - N/A   Overcast
8:41 AM 64.0 °F 61.0 °F 90% 29.95 in 2.5 mi WNW 8.1 mph - N/A   Overcast
8:49 AM 64.4 °F 62.6 °F 94% 29.95 in 4.0 mi West 6.9 mph - N/A   Overcast
8:52 AM 64.0 °F 62.1 °F 93% 29.94 in 4.0 mi WNW 9.2 mph - N/A   Overcast
9:31 AM 64.9 °F 62.1 °F 90% 29.96 in 2.0 mi West 6.9 mph - N/A   Overcast
9:52 AM 64.9 °F 62.1 °F 90% 29.96 in 1.8 mi WNW 8.1 mph - N/A   Overcast
10:33 AM 64.9 °F 62.1 °F 90% 29.96 in 3.0 mi NE 9.2 mph - 0.00 in   Overcast
10:52 AM 64.0 °F 61.0 °F 90% 29.96 in 8.0 mi NE 9.2 mph - 0.00 in Rain Light Rain
11:31 AM 64.9 °F 60.1 °F 84% 29.96 in 10.0 mi ENE 11.5 mph - 0.00 in   Overcast
11:52 AM 66.0 °F 60.1 °F 81% 29.95 in 10.0 mi ENE 10.4 mph - 0.00 in   Overcast
12:52 PM 66.0 °F 59.0 °F 78% 29.96 in 10.0 mi ENE 8.1 mph - N/A   Overcast
1:52 PM 63.0 °F 59.0 °F 87% 29.96 in 4.0 mi East 8.1 mph - 0.06 in Rain Rain
2:05 PM 62.1 °F 59.0 °F 90% 29.94 in 3.0 mi ENE 11.5 mph - 0.06 in Rain Heavy Rain
2:18 PM 62.1 °F 59.0 °F 90% 29.95 in 3.0 mi East 6.9 mph - 0.10 in Rain Heavy Rain
2:40 PM 62.1 °F 59.0 °F 90% 29.95 in 10.0 mi East 6.9 mph - 0.12 in Rain Light Rain
2:52 PM 62.1 °F 57.9 °F 86% 29.94 in 6.0 mi East 11.5 mph - 0.13 in Rain Light Rain
3:23 PM 61.0 °F 59.0 °F 93% 29.97 in 1.8 mi East 3.5 mph - 0.19 in Rain Heavy Rain
3:32 PM 61.0 °F 57.9 °F 90% 29.96 in 2.0 mi ENE 8.1 mph - 0.22 in Rain Rain
3:43 PM 61.0 °F 59.0 °F 93% 29.97 in 3.0 mi ENE 8.1 mph - 0.26 in Rain Rain
3:52 PM 61.0 °F 57.9 °F 90% 29.95 in 6.0 mi East 6.9 mph - 0.26 in Rain Light Rain
4:30 PM 62.1 °F 59.0 °F 90% 29.95 in 10.0 mi East 9.2 mph - 0.01 in Rain Light Rain
4:36 PM 62.1 °F 59.0 °F 90% 29.94 in 10.0 mi East 6.9 mph - 0.01 in   Overcast
4:52 PM 62.1 °F 59.0 °F 90% 29.92 in 5.0 mi East 9.2 mph - 0.03 in Rain Light Rain
5:01 PM 62.1 °F 59.0 °F 90% 29.92 in 10.0 mi East 6.9 mph - 0.00 in   Overcast
5:52 PM 62.1 °F 59.0 °F 90% 29.91 in 5.0 mi East 6.9 mph - 0.00 in Rain Light Rain
6:52 PM 62.1 °F 59.0 °F 90% 29.90 in 4.0 mi East 6.9 mph - 0.05 in Rain Rain
7:25 PM 62.1 °F 59.0 °F 90% 29.91 in 4.0 mi SE 5.8 mph - 0.10 in Rain Heavy Rain
7:52 PM 62.1 °F 60.1 °F 93% 29.91 in 8.0 mi ESE 4.6 mph - 0.15 in Rain Light Rain
8:12 PM 62.1 °F 60.1 °F 93% 29.91 in 9.0 mi Calm Calm - 0.01 in Rain Light Rain
8:43 PM 62.1 °F 60.1 °F 93% 29.91 in 10.0 mi ENE 5.8 mph - 0.02 in Rain Light Rain
8:52 PM 62.1 °F 60.1 °F 93% 29.91 in 10.0 mi ENE 4.6 mph - 0.02 in Rain Light Rain
9:52 PM 62.1 °F 59.0 °F 90% 29.92 in 10.0 mi East 5.8 mph - 0.07 in Rain Light Rain
9:59 PM 62.1 °F 59.0 °F 90% 29.92 in 10.0 mi East 4.6 mph - 0.00 in   Overcast
10:09 PM 62.1 °F 59.0 °F 90% 29.93 in 10.0 mi ESE 4.6 mph - 0.00 in   Overcast
10:52 PM 62.1 °F 59.0 °F 90% 29.93 in 10.0 mi East 4.6 mph - 0.00 in   Overcast
11:52 PM 62.1 °F 59.0 °F 90% 29.92 in 10.0 mi Calm Calm - N/A   Overcast